Location: Emblem
(62.4273°N, 6.4710°E)
Time: 19:43:18
(UTC+01:00)

A-11 Canister half - All Passes

Search period start: 30 January 2023 00:00
Search period end: 09 February 2023 00:00
Orbit: 1525 x 1683 km, 47.3° (Epoch: 30 January)

Date Brightness Start Highest point End Pass type
(mag) Time Alt. Az. Time Alt. Az. Time Alt. Az.
30 Jan - 07:24:30 10° S 07:30:37 20° SE 07:36:48 10° ESE visible
30 Jan - 09:25:26 10° SW 09:33:12 31° SSE 09:41:08 10° ESE daylight
30 Jan - 11:28:23 10° WSW 11:36:10 30° SSW 11:44:08 10° SE daylight
30 Jan - 13:32:44 10° WSW 13:38:46 19° SW 13:44:53 10° S daylight
31 Jan - 07:03:06 10° S 07:09:03 19° SE 07:15:03 10° ESE visible
31 Jan - 09:03:52 10° SW 09:11:35 30° SSE 09:19:29 10° ESE daylight
31 Jan - 11:06:46 10° WSW 11:14:33 31° SSW 11:22:32 10° SE daylight
31 Jan - 13:11:02 10° WSW 13:17:10 20° SW 13:23:26 10° S daylight
01 Feb - 06:41:42 10° S 06:47:28 18° SE 06:53:18 10° ESE visible
01 Feb - 08:42:19 10° SW 08:49:59 30° SSE 08:57:48 10° ESE daylight
01 Feb - 10:45:09 10° WSW 10:52:56 31° S 11:00:54 10° SE daylight
01 Feb - 12:49:19 10° WSW 12:55:35 20° SW 13:01:58 10° S daylight
02 Feb - 06:20:19 10° S 06:25:54 18° SE 06:31:33 10° ESE visible
02 Feb - 08:20:45 10° SW 08:28:22 30° SSE 08:36:08 10° ESE daylight
02 Feb - 10:23:31 10° WSW 10:31:20 31° S 10:39:19 10° SE daylight
02 Feb - 12:27:38 10° WSW 12:34:00 21° SW 12:40:30 10° S daylight
03 Feb - 05:58:57 10° S 06:04:20 17° SE 06:09:47 10° ESE visible
03 Feb - 07:59:12 10° SW 08:06:46 29° SSE 08:14:29 10° ESE visible
03 Feb - 10:01:55 10° WSW 10:09:43 31° S 10:17:41 10° SE daylight
03 Feb - 12:05:56 10° WSW 12:12:25 21° SSW 12:19:00 10° S daylight
04 Feb - 05:37:35 10° S 05:42:47 16° SE 05:48:00 10° ESE visible
04 Feb - 07:37:39 10° SW 07:45:11 29° SSE 07:52:48 10° ESE visible
04 Feb - 09:40:18 10° WSW 09:48:06 31° S 09:56:04 10° SE daylight
04 Feb - 11:44:15 10° WSW 11:50:49 22° SSW 11:57:31 10° SSE daylight
05 Feb - 05:16:15 10° S 05:21:12 16° SE 05:26:12 10° ESE visible
05 Feb - 07:16:06 10° SW 07:23:34 28° SSE 07:31:09 10° ESE visible
05 Feb - 09:18:41 10° WSW 09:26:30 31° S 09:34:28 10° SE daylight
05 Feb - 11:22:34 10° WSW 11:29:14 22° SSW 11:36:00 10° SSE daylight
06 Feb - 04:54:56 10° SSE 04:59:39 15° SE 05:04:23 10° ESE visible
06 Feb - 06:54:34 10° SW 07:01:59 28° SSE 07:09:29 10° ESE visible
06 Feb - 08:57:04 10° WSW 09:04:53 32° S 09:12:50 10° SE daylight
06 Feb - 11:00:54 10° WSW 11:07:39 23° SSW 11:14:31 10° SSE daylight
07 Feb - 04:33:38 10° SSE 04:38:05 15° SE 04:42:34 10° ESE visible
07 Feb - 06:33:02 10° SSW 06:40:23 27° SSE 06:47:49 10° ESE visible
07 Feb - 08:35:28 10° WSW 08:43:17 32° S 08:51:14 10° SE daylight
07 Feb - 10:39:14 10° WSW 10:46:03 23° SSW 10:52:59 10° SSE daylight
08 Feb - 04:12:22 10° SSE 04:16:32 14° SE 04:20:43 10° ESE visible
08 Feb - 06:11:29 10° SSW 06:18:47 27° SSE 06:26:09 10° ESE visible
08 Feb - 08:13:51 10° WSW 08:21:40 32° S 08:29:35 10° SE daylight
08 Feb - 10:17:34 10° WSW 10:24:28 24° SSW 10:31:28 10° SSE daylight
08 Feb - 12:25:38 10° SW 12:26:29 10° SW 12:27:19 10° SW daylight
